Lid_Strength_Index
-1 -1 -0 2 9 9 13 10 7 8 8 5 5 6 7 6 9 10 1 0 -0 -0 -1 -1 -1 -1 -1 -1 -1 -1 -1 -1 -1 -1 -1 -1 -1 -1 -1 -1 -1 -1 -1 -2 -2 -2 -2 -2 -1
-1 0 1 4 11 13 12 8 8 7 5 4 4 5 6 8 4 3 2 -0 -1 -1 -1 -1 -1 -2 -1 -1 -1 -1 -1 -1 -1 -1 -1 -1 -1 -1 -1 -1 -1 -1 -1 -2 -2 -2 -2 -2 -2
-0 0 5 8 9 15 12 8 7 6 5 5 5 4 5 6 3 2 0 -0 -1 -1 -0 -1 -1 -2 -1 -1 -1 -1 -1 -1 -1 -1 -1 -1 -1 -1 -1 -1 -1 -1 -2 -2 -2 -2 -2 -2 -1
1 2 4 11 13 9 8 6 6 6 5 4 4 7 4 2 2 1 -0 -0 -0 -1 -1 -1 -1 -1 -1 -1 -1 -1 -1 -1 -1 -1 -1 -1 -1 -1 -1 -1 -1 -2 -2 -2 -1 -1 -1 -1 -1
1 4 11 12 10 8 6 5 5 6 6 5 5 6 5 2 1 0 0 0 0 -0 -1 -1 -1 -1 -2 -1 -1 -1 -1 -1 -1 -1 -1 -1 -1 -1 -1 -1 -1 -2 -2 -1 -1 -1 -1 -1 -1
7 4 13 13 10 8 6 5 5 6 5 5 5 5 5 1 2 1 0 0 -0 -0 -1 -1 -2 -1 -1 -1 -1 -1 -1 -1 -1 -1 -1 -1 -1 -1 -1 -1 -2 -1 -1 -1 -1 -1 -1 -1 -1
7 9 11 11 10 9 7 4 6 6 6 5 4 6 4 3 1 1 0 0 -0 -0 -0 -1 -1 -1 -1 -1 -1 -1 -1 -1 -1 -1 -1 -1 -1 -2 -2 -2 -2 -1 -1 -1 -1 -1 -1 -1 -1
4 7 10 9 11 11 6 5 4 5 6 3 3 7 7 3 1 1 0 0 0 -0 -1 -1 -1 -1 -1 -2 -1 -1 -1 -1 -2 -1 -1 -1 -2 -2 -2 -2 -2 -1 -1 -1 -1 -1 -1 -1 -2
3 10 11 10 10 8 5 7 4 3 5 4 3 4 2 1 1 1 2 1 1 0 -0 -1 -1 -1 -1 -2 -1 -1 -1 -1 -1 -1 -1 -2 -1 -1 -2 -2 -2 -1 -1 -1 -1 -1 -1 -2 -2
5 9 8 6 6 7 6 6 5 6 5 5 4 3 2 2 2 3 2 3 2 1 0 -0 -0 -0 -1 -1 -1 -2 -1 -1 -1 -2 -2 -1 -1 -2 -2 -2 -1 -1 -1 -1 -2 -2 -2 -2 -1
5 8 6 6 5 5 6 6 5 6 8 5 6 4 3 2 3 3 3 2 2 1 1 0 -0 -1 -1 -1 -1 -1 -1 -1 -2 -2 -2 -1 -2 -2 -2 -2 -1 -2 -2 -1 -1 -1 -1 -1 -1
7 5 5 5 5 5 6 5 6 5 5 3 3 3 3 3 3 3 3 2 2 1 1 0 -0 -0 -1 -1 -1 -1 -1 -1 -1 -2 -2 -2 -1 -1 -1 -1 -1 -2 -1 -1 -1 -1 -1 -1 -1
6 6 5 5 5 5 5 6 6 6 4 3 3 3 3 4 3 2 2 1 1 1 1 0 -0 -0 -1 -1 -1 -1 -1 -1 -1 -1 -1 -1 -1 -1 -1 -1 -1 -1 -1 -1 -1 -1 -1 -1 -1
5 5 6 5 5 5 6 6 5 5 3 4 3 3 3 3 3 3 2 2 2 1 1 -0 -0 -0 -1 -1 -1 -1 -1 -1 -1 -1 -1 -2 -2 -2 -1 -1 -1 -1 -1 -1 -2 -1 -1 -1 -1
4 6 6 6 6 6 5 8 7 4 4 4 4 3 3 3 2 2 2 2 2 1 1 0 0 -0 -1 -1 -1 -1 -1 -0 -1 -1 -1 -2 -2 -2 -2 -1 -1 -1 -2 -2 -1 -1 -1 -0 -1
6 6 10 6 6 6 6 11 6 4 4 5 4 4 3 3 2 2 1 1 1 1 1 -0 0 -0 -0 -0 -1 -1 -1 -1 -0 -1 -1 -2 -2 -2 -2 -1 -1 -1 -2 -1 -1 -1 -0 -0 -0
6 9 9 8 6 6 7 8 6 4 5 5 4 4 4 3 2 2 1 1 1 1 1 1 -0 -0 -0 -1 -1 -1 -1 -1 -1 -1 -1 -2 -2 -2 -1 -1 -1 -2 -1 -1 -1 -1 -1 0 0
8 8 8 9 7 6 7 7 5 5 5 5 5 4 4 4 3 2 1 1 0 0 -0 -0 0 0 -0 -0 -0 -0 -1 -1 -1 -1 -1 -2 -2 -2 -1 -1 -2 -1 -1 -0 -1 -1 -0 -0 1
6 7 8 7 5 6 7 6 5 5 5 5 5 4 4 3 2 2 1 1 1 0 0 0 0 0 0 0 1 1 1 0 -0 -1 -2 -2 -2 -2 -2 -1 -1 -2 -1 -0 -1 -0 -0 1 0
6 7 7 6 6 6 6 6 5 5 5 5 5 5 4 3 3 2 2 1 1 1 0 0 0 0 -0 0 -0 0 0 -0 -0 -1 -1 -2 -2 -2 -2 -1 -1 -1 -1 -1 -1 -1 1 1 0
7 7 7 7 6 5 6 7 6 5 5 4 4 4 4 4 3 3 2 2 1 1 1 1 0 0 -0 -0 -0 -0 -1 -0 0 -0 -0 -1 -1 -2 -2 -2 -1 -1 -1 0 -0 -1 -0 1 1
8 6 6 7 7 10 6 11 7 6 6 5 5 4 4 3 3 3 2 2 2 1 1 0 0 -0 -0 -0 0 0 1 2 1 0 -0 -1 -1 -1 -1 -2 -2 -1 -1 -1 -1 -1 -0 -0 1
7 5 6 6 7 8 8 9 7 6 6 5 5 4 4 3 3 3 2 2 1 1 1 0 0 0 -0 -0 -1 1 1 0 0 -0 -1 -1 -1 -2 -1 -2 -2 -1 -0 -1 -1 -1 -1 0 1
6 7 6 6 7 11 8 9 9 7 6 5 4 4 4 3 3 2 2 2 2 1 1 1 1 1 0 0 -0 0 1 1 1 1 1 0 -0 -0 -1 -1 -2 -2 -1 -1 -1 -1 -1 -0 0
6 8 10 11 11 11 7 8 7 6 5 4 4 3 3 3 3 3 3 2 2 1 1 1 1 1 0 0 0 0 0 0 0 0 0 1 1 0 -0 -1 -1 -1 -1 -1 -1 -1 -1 -0 -0
7 7 10 12 12 10 7 10 7 5 4 3 3 3 3 3 2 3 2 2 2 2 1 1 1 1 1 0 0 0 0 0 0 -0 0 0 0 -1 -0 -1 -1 -1 -1 -1 -1 -0 -0 -1 0
7 8 6 9 8 10 9 7 5 5 5 4 4 3 3 3 3 3 2 2 2 2 1 1 1 1 1 1 0 0 0 0 0 -0 -0 -0 -1 -0 -1 -1 -1 -1 -1 -1 -1 -0 -0 -0 -0
6 5 9 8 12 13 10 9 9 6 6 5 5 4 3 3 3 2 2 2 2 1 1 1 1 1 1 0 0 0 0 0 -0 -0 -0 -0 -1 -1 -1 -1 -1 -1 -1 -1 -1 -0 -0 -0 0
7 8 7 7 8 11 12 10 6 6 5 5 4 4 3 3 3 3 2 2 2 1 1 1 1 1 1 1 0 0 0 0 -0 0 -0 -0 -1 -1 -0 -1 -1 -0 -0 -1 -1 -0 -0 -0 0
5 7 7 10 10 9 9 9 5 5 4 4 4 3 3 3 2 3 2 2 2 2 1 1 1 1 1 1 0 0 -0 0 0 0 -0 -0 -0 -1 -0 -0 -0 -0 -0 -1 -0 0 -0 0 0